Llagostera





Hora UTC 16:05
Temperatura 10.5 ºC
Humitat 79.0 %
Pressió 1032.5 hPa
Pluja 0.2 mm
Velocitat vent 6.4 km/h
Direcció vent

Dades diàries 2022-01-25



Hora UTC (hivern +1h; estiu +2h)
Temperatura (ºC) Humitat (%) Pressió (hPa) Velocitat vent (km/h) Precipitació (mm)
Hora UTC Aire Humitat Pressió Vel. Dir. Vel. Max Dir. Intent. màx 5 min.
00:05 -2.9 93.0 1033.1 0.0 0.0 0.0
00:15 -2.8 94.0 1033.2 0.0 0.0 0.0
00:25 -2.7 94.0 1033.1 0.0 0.0 0.0
00:35 -2.7 94.0 1033.1 0.0 0.0 0.0
00:45 -2.7 94.0 1033.1 0.0 0.0 0.0
00:55 -2.4 94.0 1033.2 0.0 0.0 0.0
01:05 -2.3 94.0 1033.3 0.0 0.0 0.0
01:15 -2.2 94.0 1033.4 0.0 0.0 0.0
01:25 -2.3 94.0 1033.3 0.0 0.0 0.0
01:35 -2.4 94.0 1033.3 0.0 0.0 0.0
01:45 -2.6 94.0 1033.4 0.0 0.0 0.0
01:55 -2.7 94.0 1033.4 0.0 0.0 0.0
02:05 -2.8 94.0 1033.4 0.0 0.0 0.0
02:15 -2.9 94.0 1033.4 0.0 0.0 0.0
02:25 -2.9 94.0 1033.5 0.0 0.0 0.0
02:35 -2.9 94.0 1033.5 0.0 0.0 0.0
02:45 -3.0 94.0 1033.5 0.0 0.0 0.0
02:55 -3.1 94.0 1033.5 0.0 0.0 0.0
03:05 -3.1 94.0 1033.4 0.0 0.0 0.0
03:15 -2.9 94.0 1033.3 0.0 0.0 0.0
03:25 -2.7 95.0 1033.2 0.0 0.0 0.0
03:35 -2.4 95.0 1033.2 0.0 0.0 0.0
03:45 -2.1 95.0 1033.3 0.0 0.0 0.0
03:55 -1.8 95.0 1033.3 0.0 0.0 0.0
04:05 -1.7 95.0 1033.3 0.0 0.0 0.0
04:15 -1.6 95.0 1033.3 0.0 0.0 0.0
04:25 -1.6 95.0 1033.2 0.0 0.0 0.0
04:35 -1.5 94.0 1033.3 0.0 0.0 0.0
04:45 -1.5 95.0 1033.1 0.0 0.0 0.0
04:55 -1.7 94.0 1033.3 0.0 0.0 0.0
05:05 -1.8 94.0 1033.3 0.0 0.0 0.0
05:15 -1.9 94.0 1033.2 0.0 0.0 0.0
05:25 -2.1 94.0 1033.2 0.0 0.0 0.0
05:35 -2.3 94.0 1033.2 0.0 0.0 0.0
05:45 -2.5 94.0 1033.3 0.0 0.0 0.0
05:55 -2.7 94.0 1033.3 0.0 0.0 0.0
06:05 -3.2 94.0 1033.4 0.0 0.0 0.0
06:15 -3.3 94.0 1033.4 0.0 0.0 0.0
06:25 -3.4 94.0 1033.6 0.0 0.0 0.0
06:35 -3.6 94.0 1033.5 0.0 0.0 0.0
06:45 -3.7 94.0 1033.6 0.0 0.0 0.0
06:55 -3.8 94.0 1033.8 0.0 0.0 0.0
07:05 -3.8 94.0 1033.9 0.0 0.0 0.0
07:15 -3.7 95.0 1033.9 0.0 0.0 0.0
07:25 -3.4 95.0 1033.9 0.0 0.0 0.0
07:35 -2.9 95.0 1034.1 0.0 0.0 0.0
07:45 -2.7 95.0 1034.1 0.0 0.0 0.0
07:55 -2.4 95.0 1034.2 0.0 0.0 0.0
08:05 -2.2 95.0 1034.3 0.0 0.0 0.0
08:25 -1.7 95.0 1034.3 0.0 0.0 0.0
08:35 -1.4 95.0 1034.4 0.0 0.0 0.0
08:45 -1.1 95.0 1034.4 0.0 0.0 0.0
08:55 -0.9 95.0 1034.5 0.0 0.0 0.2
09:05 -0.7 95.0 1034.5 0.0 4.8 0.0
09:15 -0.4 95.0 1034.5 1.6 6.4 0.0
09:25 0.0 95.0 1034.5 3.2 6.4 0.0
09:35 0.4 95.0 1034.7 0.0 6.4 0.0
09:45 1.3 95.0 1034.7 0.0 6.4 0.0
09:55 2.1 96.0 1034.7 4.8 8.0 0.0
10:05 2.6 95.0 1034.7 4.8 9.7 0.0
10:15 3.0 94.0 1034.8 4.8 9.7 0.0
10:25 3.3 94.0 1034.7 3.2 9.7 0.0
10:35 3.5 93.0 1034.6 0.0 9.7 0.0
10:45 4.2 93.0 1034.5 0.0 9.7 0.0
10:55 4.9 91.0 1034.4 1.6 9.7 0.0
11:05 5.8 90.0 1034.4 1.6 9.7 0.0
11:15 6.7 87.0 1034.2 1.6 9.7 0.0
11:25 7.6 85.0 1034.1 0.0 9.7 0.0
11:35 8.2 84.0 1034.0 0.0 9.7 0.0
11:45 8.8 83.0 1033.9 0.0 9.7 0.0
11:55 9.7 81.0 1033.8 0.0 9.7 0.0
12:05 10.5 80.0 1033.8 0.0 9.7 0.0
12:15 11.4 77.0 1033.7 3.2 9.7 0.0
12:25 12.1 77.0 1033.5 4.8 11.3 0.0
12:35 12.3 76.0 1033.4 3.2 11.3 0.0
12:45 12.7 75.0 1033.1 4.8 11.3 0.0
12:55 12.9 75.0 1033.0 3.2 11.3 0.0
13:05 12.7 74.0 1032.9 4.8 11.3 0.0
13:15 12.7 74.0 1032.9 3.2 11.3 0.0
13:25 12.3 75.0 1032.8 4.8 17.7 0.0
13:35 11.9 77.0 1032.7 9.7 17.7 0.0
13:45 12.2 76.0 1032.7 9.7 17.7 0.0
13:55 12.3 77.0 1032.6 9.7 17.7 0.0
14:05 12.3 76.0 1032.5 9.7 17.7 0.0
14:15 12.3 77.0 1032.5 9.7 17.7 0.0
14:25 12.4 76.0 1032.5 8.0 17.7 0.0
14:35 12.4 75.0 1032.4 9.7 17.7 0.0
14:45 12.1 76.0 1032.5 11.3 17.7 0.0
14:55 11.9 77.0 1032.5 9.7 17.7 0.0
15:05 11.9 77.0 1032.6 8.0 17.7 0.0
15:15 11.8 77.0 1032.4 8.0 17.7 0.0
15:25 11.7 77.0 1032.5 9.7 17.7 0.0
15:35 11.3 78.0 1032.3 8.0 17.7 0.0
15:45 10.9 79.0 1032.3 6.4 17.7 0.0
15:55 10.8 78.0 1032.5 6.4 17.7 0.0
16:05 10.5 79.0 1032.5 6.4 17.7 0.0
Màxima 12.9 96.0 1034.8 11.3 17.7 0.2
Mínima -3.8 74.0 1032.3
Total 0.2